Flag for Germany Weather past 2 weeks in Detmold, North Rhine-Westphalia, Germany

Now
61 °F

Scattered clouds.


Feels Like: 61 °F
Forecast: 45 / 67 °F
Wind: 3 mph from Northwest

Location: Bad Lippspringe

Current Time: Aug 20, 2014 at 7:28:38 PM

Latest Report: Aug 20, 2014 at 7:00 PM


Visibility: 28 mi

Pressure: 29.98 "Hg

Humidity: 51%

Dew point: 42 °F

Location of DetmoldLocation

Historic Weather in Detmold — Graph

°F

Detmold temperature yesterday

Maximum temperature yesterday: 58 °F (at 11:00 AM)
Minimum temperature yesterday: 49 °F (at 6:00 AM)
Average temperature yesterday: 54 °F

Past Weeks' High & Low Weather Summary

 TemperatureHumidityPressure
High79 °F (Aug 8, 3:00 PM)98% (Aug 8, 4:00 AM)30.12 "Hg (Aug 8, 4:00 AM)
Low47 °F (Aug 20, 4:00 AM)40% (Aug 8, 3:00 PM)29.61 "Hg (Aug 10, 10:00 PM)
Average61 °F75%29.86 "Hg
* Reported Aug 5 6:00 PM — Aug 20 6:00 PM, Detmold, Weather by CustomWeather, © 2014

Note: Actual official high and low records may vary slightly from our data, if they occured in-between our weather recording intervals... More about our weather records

Advertising

Detmold weather history for previous 24 hours

 ConditionsComfort  
Time TempWeatherWind HumidityBarometerVisibility
6:00 PM
Aug 20
61 °FPassing clouds.3 mph54%29.98 "Hg22 mi
5:00 PM62 °FScattered clouds.7 mph53%29.99 "Hg19 mi
4:00 PM64 °FPassing clouds.6 mph47%29.98 "Hg9 mi
3:00 PM61 °FOvercast.5 mph56%29.99 "Hg22 mi
2:00 PM60 °FOvercast.6 mph58%30.00 "Hg19 mi
1:00 PM62 °FPartly sunny.7 mph61%29.99 "Hg17 mi
12:00 PM58 °FPartly sunny.6 mph65%N/A17 mi
11:00 AM57 °FScattered clouds.7 mphN/A30.00 "Hg19 mi
10:00 AM55 °FScattered clouds.6 mph75%30.00 "Hg15 mi
9:00 AM53 °FPassing clouds.3 mph81%29.99 "Hg12 mi
8:00 AM50 °FOvercast.6 mph83%29.98 "Hg14 mi
7:00 AM49 °FOvercast.3 mph86%29.97 "Hg15 mi
6:00 AM49 °FOvercast.3 mph86%29.96 "Hg14 mi
5:00 AM48 °FOvercast.3 mph87%29.96 "Hg12 mi
4:00 AM47 °FPassing clouds.3 mph87%29.95 "Hg13 mi
3:00 AM48 °FPassing clouds.3 mph86%29.94 "Hg13 mi
2:00 AM49 °FPassing clouds.3 mph85%29.94 "Hg15 mi
1:00 AM49 °FPassing clouds.3 mph87%29.94 "Hg13 mi
12:00 AM48 °FClear.2 mph90%29.93 "Hg9 mi
11:00 PM
Aug 19
50 °FClear.3 mph90%29.92 "Hg9 mi
10:00 PM51 °FOvercast.3 mph90%29.91 "Hg13 mi
9:00 PM50 °FOvercast.2 mph89%29.89 "Hg17 mi
8:00 PM51 °FOvercast.3 mph89%29.87 "Hg19 mi
7:00 PM52 °FOvercast.2 mph88%29.84 "Hg22 mi
Weather by CustomWeather, © 2014

See weather overviewHow to use our weather pages